Overview Statistics Trail Chart Weather Telemetry Raw packets
 

This is the latest recevied weather packets stored in our database for station/object N6ZHV-13. If no packets are shown the sender has not sent any weather packets the latest 10 day(s).

<< 109 110 111 112 113 114 115 >>
Time Temp. Humidity Pressure Rain* Wind** Luminosity Snow
1787873234 34.44° C 33% 1005.3 hPa 0 mm - - -
1787872934 34.44° C 33% 1005.2 hPa 0 mm - - -
1787872634 33.89° C 33% 1005.3 hPa 0 mm - - -
1787872334 33.89° C 34% 1005.3 hPa 0 mm - - -
1787872034 33.89° C 34% 1005.3 hPa 0 mm - - -
1787871734 33.89° C 34% 1005.4 hPa 0 mm - - -
1787871434 33.89° C 34% 1005.3 hPa 0 mm - - -
1787871134 33.89° C 34% 1005.4 hPa 0 mm - - -
1787870834 33.89° C 34% 1005.6 hPa 0 mm - - -
1787870534 33.33° C 34% 1005.7 hPa 0 mm - - -
1787870234 33.89° C 34% 1005.8 hPa 0 mm - - -
1787869934 33.33° C 35% 1005.8 hPa 0 mm - - -
1787869635 33.33° C 36% 1005.9 hPa 0 mm - - -
1787869334 33.33° C 37% 1006.1 hPa 0 mm - - -
1787869034 32.78° C 37% 1006.3 hPa 0 mm - - -
1787868734 32.78° C 36% 1006.3 hPa 0 mm - - -
1787868434 32.22° C 40% 1006.5 hPa 0 mm - - -
1787868134 32.22° C 40% 1006.6 hPa 0 mm - - -
1787867834 32.22° C 42% 1006.8 hPa 0 mm - - -
1787867534 32.22° C 42% 1006.9 hPa 0 mm - - -
1787867234 31.67° C 45% 1007 hPa 0 mm - - -
1787866934 31.67° C 47% 1007 hPa 0 mm - - -
1787866634 31.67° C 47% 1007.1 hPa 0 mm - - -
1787866334 31.67° C 49% 1007.2 hPa 0 mm - - -
1787866034 31.11° C 51% 1007.2 hPa 0 mm - - -

* Rain latest hour (hover to see other rain measurements)
** Current wind speed in m/s (hover to see current wind gust speed)